Orbital Elements at Epoch 2459000.5 (2020-May-31.0) TDB
Reference: JPL 14 (heliocentric ecliptic J2000)
Element | Value | Uncertainty (1-sigma) | Units |
e | .1860100482345111 | 6.4535e-08 | |
a | 2.661253052619046 | 2.7101e-08 | au |
q | 2.166233243937137 | 1.7518e-07 | au |
i | 2.649144846920404 | 4.9127e-06 | deg |
node | 245.3864146497115 | 0.00018518 | deg |
peri | 53.00008480461131 | 0.00018593 | deg |
M | 243.0880009738464 | 1.6583e-05 | deg |
tp | 2459515.472776828871 (2021-Oct-27.97277683) | 7.4201e-05 | TDB |
period | 1585.724315747274 4.34 | 2.4223e-05 6.632e-08 | d yr |
n | .2270255910343089 | 3.4679e-09 | deg/d |
Q | 3.156272861300955 | 3.2143e-08 | au |
|
| | Orbit Determination Parameters
Additional Information
|